Wetbulb
74.14 75.02 75.44 76.09 77.04 77.09 77.22 76.40 75.68 74.53 73.35 73.47 74.13 75.48 73.60 75.42 75.87 75.89 77.63 76.77 76.86 76.60 77.40 77.19 77.04 76.83 75.76 75.30 76.10 74.19 75.38 72.44 73.42 73.18 71.43 71.38 73.18 74.23 74.59 74.84 74.29 75.21 75.41
73.54 74.39 75.60 76.20 75.66 75.40 75.59 75.51 74.56 72.44 72.07 74.25 73.89 76.88 75.17 76.01 76.55 77.62 76.89 76.97 75.92 75.99 76.04 76.39 75.55 76.25 75.51 75.79 75.66 75.78 74.73 73.70 75.50 70.29 69.29 66.55 67.83 71.37 73.75 74.00 75.77 75.00 76.89
72.69 73.74 74.58 74.50 74.65 74.55 74.33 74.85 73.23 72.82 71.14 72.84 74.60 77.99 77.31 76.45 76.37 75.38 73.92 74.57 74.84 74.58 74.69 74.67 75.88 75.59 76.43 75.28 74.28 74.58 72.92 71.54 73.97 73.40 69.39 65.55 63.73 66.93 73.28 74.38 73.64 75.42 76.99
73.29 74.01 73.21 73.38 73.35 74.24 75.10 75.09 74.53 73.46 72.41 72.42 71.66 75.11 74.77 72.62 73.01 72.65 73.62 73.92 74.53 73.36 73.80 74.10 73.69 75.06 76.23 74.41 74.64 75.06 73.19 73.08 71.35 73.86 72.16 73.64 71.58 67.49 66.50 73.81 74.24 76.36 75.68
72.23 71.83 72.22 73.24 74.04 72.74 73.02 74.02 74.08 73.47 74.41 74.91 76.02 75.91 75.05 72.72 73.36 72.35 73.45 75.65 75.84 74.23 73.36 73.69 73.23 73.69 74.79 75.18 74.14 74.44 74.43 74.03 73.14 71.71 73.05 72.53 69.92 71.00 68.17 67.19 69.38 72.87 73.36
71.05 71.45 72.72 73.24 72.06 73.13 72.45 72.83 73.61 73.84 74.55 74.71 75.41 74.70 72.32 71.92 71.51 72.21 71.43 71.14 71.71 72.73 73.61 73.59 73.75 74.36 74.09 73.69 75.14 74.71 73.77 73.89 71.44 72.13 72.50 71.75 69.93 68.30 68.31 69.43 69.38 67.55 70.00
70.42 71.29 71.50 71.15 71.74 71.81 71.32 71.99 72.81 72.90 74.74 74.92 74.57 73.78 73.11 72.34 72.42 72.62 71.31 72.33 70.90 71.62 73.92 73.67 73.56 73.06 73.76 73.65 74.46 74.11 73.34 73.26 70.90 71.40 71.26 73.37 70.41 74.94 71.93 71.83 67.37 66.50 70.32
70.15 70.59 71.08 71.06 71.32 71.31 72.13 72.99 73.92 74.43 74.33 74.30 74.08 74.10 73.09 72.75 72.15 72.78 71.58 71.50 71.50 73.10 73.62 72.65 73.03 73.43 72.65 72.99 73.69 72.17 72.13 73.50 71.81 71.31 72.62 72.55 71.89 71.41 70.04 71.98 71.71 68.32 66.75
69.12 70.36 70.91 70.63 71.45 71.65 72.23 72.85 73.79 74.52 74.54 74.32 73.85 73.78 73.76 73.17 72.59 72.87 73.14 71.37 72.81 72.42 72.90 72.76 72.68 73.23 72.77 72.96 73.57 73.70 72.90 73.55 73.37 72.46 71.42 72.96 73.11 71.77 71.58 71.98 71.94 70.73 63.88
69.35 70.36 71.07 71.26 71.37 72.22 72.76 73.63 74.21 74.39 74.35 73.91 73.45 72.84 72.80 72.89 73.18 72.87 72.61 71.98 72.37 72.20 71.95 71.38 72.11 71.88 72.92 73.31 73.64 74.03 73.48 72.85 73.27 73.07 72.32 73.12 74.95 74.46 75.52 72.62 71.11 72.38 68.86
69.82 70.49 71.14 71.62 71.72 72.90 73.18 73.52 74.21 73.93 73.02 73.62 72.86 72.63 72.46 72.46 73.80 72.40 72.29 71.57 71.79 71.51 70.85 70.55 70.53 70.82 71.75 72.57 73.17 71.91 71.55 71.29 71.04 71.07 70.44 70.65 72.30 73.19 75.55 75.98 75.00 72.26 71.89
70.60 71.29 71.76 71.54 71.51 72.10 72.89 73.10 73.17 72.71 72.93 73.65 73.16 72.65 72.74 72.46 71.84 71.88 71.72 71.45 70.79 71.73 70.77 70.45 70.15 70.16 69.43 70.69 70.33 68.91 69.02 68.84 68.44 68.81 69.33 69.30 70.55 71.46 72.36 72.39 71.64 71.23 71.39
71.01 71.59 71.74 70.93 71.12 72.02 71.66 71.87 71.87 72.22 72.75 73.58 73.09 72.59 72.39 72.88 71.66 71.48 71.05 71.26 70.47 70.25 70.05 69.82 69.11 69.50 69.52 68.91 68.71 68.07 66.65 66.31 65.40 65.66 65.37 66.46 67.99 66.82 66.77 67.34 67.47 68.00 68.59
70.99 71.35 71.46 71.43 71.75 71.22 70.87 71.94 71.83 72.19 72.91 72.95 72.55 72.43 72.40 72.85 72.27 71.55 71.03 70.79 70.36 70.28 69.49 69.55 69.10 69.20 68.59 68.23 67.93 67.33 66.19 65.09 63.96 63.55 63.96 64.45 64.26 64.99 65.46 64.99 65.31 66.40 65.26
70.12 71.30 71.04 70.41 70.04 70.33 71.99 72.62 72.63 72.81 73.19 72.73 72.38 72.52 73.02 72.82 72.57 71.59 70.95 70.18 69.74 69.43 69.11 68.70 68.79 67.89 67.39 65.83 67.36 66.22 65.43 64.75 63.56 62.71 60.76 60.26 60.73 60.39 61.25 63.82 63.98 65.33 64.44
69.90 71.18 70.09 68.96 69.53 71.54 72.28 72.34 72.92 73.21 73.29 72.23 71.77 73.40 72.98 72.59 72.11 71.39 69.65 69.50 68.27 68.40 68.56 67.84 66.97 66.74 65.12 58.30 60.77 65.23 65.93 64.45 64.10 63.79 63.99 63.80 62.30 59.17 58.55 59.26 59.47 62.59 64.10
70.11 70.69 69.33 69.66 71.32 71.71 72.71 72.49 73.05 74.11 73.16 73.21 73.12 73.02 72.99 72.49 71.98 71.55 69.91 67.98 67.34 67.37 67.53 66.97 66.98 65.85 63.76 56.97 58.12 62.14 65.23 64.53 64.00 63.69 63.12 62.21 61.22 62.32 61.40 58.90 58.93 58.94 59.33
70.87 69.89 69.57 70.85 72.68 72.96 72.51 72.52 72.24 72.35 72.22 71.88 71.69 72.04 72.55 72.31 72.58 71.16 69.57 68.16 66.76 66.12 65.92 65.64 65.61 64.55 60.45 54.31 54.59 58.37 65.71 64.54 63.91 63.45 63.08 62.60 61.52 58.62 60.89 59.26 57.04 55.76 55.85
71.74 70.96 71.26 71.41 70.95 70.81 70.92 71.56 71.17 71.81 71.21 69.35 68.49 67.80 69.49 70.70 69.79 69.88 68.23 67.78 66.10 65.47 65.25 65.55 64.74 64.48 62.15 53.49 54.44 58.13 64.48 63.37 62.29 60.86 58.54 60.79 59.66 53.66 54.27 59.89 57.44 55.89 54.05
71.89 70.51 68.77 68.72 67.74 66.85 68.92 69.13 68.41 68.22 66.18 65.01 65.12 65.06 64.76 67.39 68.15 68.18 67.15 67.48 65.81 65.42 64.45 64.18 63.63 59.29 62.33 50.31 51.72 54.95 62.69 61.81 59.92 59.93 57.96 51.07 53.85 50.30 51.44 61.54 60.07 58.10 58.05
68.72 68.14 68.22 67.19 66.44 66.22 66.26 65.86 65.14 62.43 62.87 62.89 62.41 61.75 59.76 59.72 64.16 64.92 65.68 65.64 65.57 64.18 63.72 61.26 61.18 59.18 53.25 53.94 49.60 50.73 62.54 61.34 60.10 58.21 55.49 53.90 48.20 46.95 47.97 51.96 59.93 56.59 56.82
66.20 67.95 66.31 65.10 65.15 65.33 65.29 63.23 60.21 60.63 61.20 60.65 59.77 58.14 57.20 56.33 57.21 58.55 59.52 59.38 62.80 62.29 61.03 60.04 60.01 56.90 54.94 48.94 47.94 47.89 49.73 55.40 57.43 55.46 54.13 50.46 44.88 44.23 44.95 51.50 46.32 47.48 50.60
66.59 66.90 64.84 62.17 62.14 62.78 63.22 60.82 59.41 60.10 59.73 58.74 57.87 56.54 55.22 54.40 54.39 54.44 55.26 54.34 54.52 57.47 55.85 50.64 50.62 50.62 50.11 50.12 47.52 47.03 48.98 50.06 55.62 54.72 48.18 45.83 43.75 44.43 47.22 46.77 47.28 48.64 54.32
64.44 64.35 64.03 62.12 60.58 61.24 61.09 60.66 60.26 60.54 59.72 57.44 55.37 54.19 52.84 51.59 51.94 52.88 53.46 52.45 51.78 51.67 49.81 50.10 51.98 51.21 52.25 51.92 52.54 51.14 50.21 48.52 47.85 48.64 49.92 49.94 49.91 47.18 49.79 50.02 52.60 54.06 53.58
62.76 62.27 61.41 60.77 58.60 59.89 60.04 60.42 60.22 60.31 59.14 58.48 56.87 55.20 52.57 49.78 47.88 46.57 48.32 50.49 48.60 50.82 52.31 52.96 53.19 53.13 51.45 49.63 45.32 47.89 51.85 52.69 50.18 50.47 48.96 48.03 53.72 53.54 53.40 53.60 53.79 53.50 53.48
61.25 60.71 60.01 59.50 58.74 59.29 59.12 59.74 60.32 60.35 60.03 58.46 57.58 55.59 54.47 53.40 52.45 50.61 48.24 43.43 43.43 42.69 41.86 43.38 47.50 46.41 43.56 41.09 41.01 41.10 42.22 43.02 44.15 49.97 52.47 53.80 53.64 53.21 53.03 52.72 52.51 52.34 50.28
MSLP
1006.34 1007.28 1007.95 1008.58 1009.77 1010.93 1011.52 1012.35 1013.01 1013.70 1014.07 1013.89 1013.90 1013.65 1013.86 1014.32 1014.33 1013.81 1013.01 1013.84 1014.05 1014.09 1014.33 1014.30 1014.48 1014.54 1014.83 1014.06 1013.77 1013.97 1013.93 1014.06 1014.13 1014.88 1014.60 1014.29 1014.12 1014.52 1015.02 1015.22 1015.64 1015.86 1015.77
1006.52 1007.53 1008.40 1009.22 1010.71 1011.38 1011.83 1012.45 1013.38 1014.00 1014.07 1014.10 1013.78 1013.86 1013.84 1013.64 1014.06 1013.46 1013.47 1013.91 1014.20 1014.05 1014.28 1014.44 1014.34 1014.44 1014.45 1014.41 1014.26 1014.36 1014.61 1014.88 1015.10 1014.90 1014.44 1013.47 1012.96 1012.96 1013.69 1014.64 1015.08 1015.39 1015.25
1006.60 1007.85 1008.86 1009.72 1010.59 1011.37 1011.74 1012.41 1013.63 1013.94 1014.28 1014.09 1013.88 1014.13 1013.85 1013.75 1013.43 1013.20 1013.06 1013.17 1013.63 1013.76 1013.90 1013.81 1013.85 1014.09 1014.26 1014.10 1014.13 1014.29 1014.54 1014.71 1014.88 1014.88 1014.03 1013.15 1012.64 1012.46 1012.95 1014.26 1014.46 1014.55 1015.18
1006.34 1007.53 1008.75 1009.94 1010.44 1010.98 1011.41 1011.95 1013.23 1013.78 1014.32 1014.25 1014.33 1013.91 1013.55 1013.31 1012.97 1013.15 1013.08 1013.57 1013.25 1013.49 1013.54 1013.56 1013.44 1013.61 1013.73 1013.76 1013.85 1014.02 1014.14 1014.54 1014.71 1014.83 1014.24 1013.77 1013.54 1013.67 1013.89 1014.20 1014.52 1014.61 1015.03
1005.90 1007.21 1008.47 1009.82 1010.24 1010.93 1011.60 1012.05 1012.99 1013.57 1013.92 1013.99 1013.80 1013.78 1013.72 1013.09 1013.28 1013.37 1013.46 1013.22 1012.78 1012.65 1012.99 1013.09 1013.16 1013.27 1013.35 1013.29 1013.57 1013.67 1013.90 1013.99 1014.16 1014.47 1014.29 1013.78 1013.72 1014.18 1014.60 1014.52 1014.60 1014.35 1014.31
1005.78 1007.08 1008.58 1009.68 1010.36 1010.92 1011.63 1012.08 1012.83 1013.36 1013.72 1013.89 1013.95 1014.07 1013.91 1013.84 1013.59 1013.64 1013.13 1012.84 1012.34 1012.85 1013.14 1012.87 1012.84 1012.99 1013.07 1013.14 1013.11 1013.35 1013.61 1013.88 1014.03 1014.53 1014.52 1014.47 1013.92 1013.69 1014.42 1014.91 1014.92 1014.70 1014.41
1005.85 1007.56 1008.77 1009.62 1010.47 1011.10 1011.54 1012.19 1012.68 1013.26 1013.56 1013.94 1013.92 1014.12 1014.16 1014.01 1013.49 1013.56 1013.16 1013.25 1012.67 1013.19 1013.45 1013.11 1012.86 1012.80 1012.91 1012.95 1013.02 1013.13 1013.35 1013.73 1014.02 1014.30 1014.34 1014.28 1013.76 1013.60 1014.30 1014.69 1014.76 1014.66 1014.63
1005.79 1007.13 1008.47 1009.52 1010.23 1010.85 1011.51 1011.89 1012.35 1012.79 1013.37 1013.59 1013.99 1014.19 1014.07 1013.54 1013.18 1013.64 1013.83 1013.49 1013.58 1013.71 1013.66 1013.38 1012.95 1012.69 1012.64 1012.66 1012.72 1012.81 1012.96 1013.15 1013.61 1014.02 1013.98 1014.03 1013.86 1013.01 1013.85 1014.35 1014.76 1014.83 1014.45
1005.46 1006.64 1008.12 1009.27 1009.84 1010.55 1011.15 1011.61 1012.22 1012.50 1012.82 1013.35 1013.90 1014.00 1014.06 1014.05 1014.10 1014.13 1014.07 1013.77 1014.36 1014.05 1013.88 1013.61 1013.22 1012.84 1012.78 1012.78 1012.66 1012.62 1012.78 1013.20 1013.54 1013.70 1013.86 1013.86 1013.84 1013.27 1012.96 1013.38 1014.40 1014.62 1014.69
1005.32 1006.45 1007.68 1008.77 1009.48 1010.26 1011.12 1011.63 1012.12 1012.26 1012.57 1013.10 1013.52 1013.72 1013.86 1014.03 1014.19 1014.16 1014.36 1014.59 1014.55 1014.49 1014.32 1014.12 1013.62 1013.46 1013.07 1012.84 1012.55 1012.73 1012.78 1012.99 1013.30 1013.56 1013.69 1013.79 1013.91 1013.78 1013.89 1013.78 1013.67 1014.53 1014.79
1005.13 1006.23 1007.24 1008.34 1009.04 1009.73 1010.00 1011.11 1011.60 1012.12 1012.51 1012.66 1013.29 1013.63 1013.56 1013.69 1014.23 1014.19 1014.50 1014.84 1014.87 1014.76 1014.68 1014.63 1014.29 1013.87 1013.55 1013.28 1013.08 1013.25 1013.24 1013.50 1013.54 1013.86 1014.03 1014.05 1013.95 1013.95 1013.99 1014.12 1014.35 1014.55 1014.97
1005.22 1006.32 1007.18 1008.15 1008.89 1009.34 1009.95 1010.72 1011.33 1011.78 1012.26 1012.62 1013.04 1013.48 1013.54 1013.73 1014.51 1014.45 1014.63 1015.00 1015.04 1015.01 1014.96 1015.03 1014.76 1014.48 1014.26 1014.03 1013.93 1014.13 1014.30 1014.30 1014.44 1014.55 1014.49 1014.51 1014.35 1014.27 1014.38 1014.47 1014.52 1014.78 1014.90
1005.79 1006.61 1007.54 1008.51 1008.96 1009.48 1010.10 1010.64 1011.16 1011.43 1012.02 1012.46 1012.74 1013.19 1013.26 1013.66 1014.58 1014.68 1015.03 1015.08 1015.16 1015.17 1015.12 1015.26 1015.21 1014.95 1014.83 1014.87 1014.85 1014.97 1015.19 1015.32 1015.46 1015.51 1015.63 1015.46 1015.19 1015.41 1015.37 1015.36 1015.23 1015.25 1015.19
1006.26 1007.14 1008.19 1008.87 1009.56 1010.47 1010.84 1010.90 1010.92 1011.33 1011.74 1011.97 1012.40 1012.91 1013.14 1013.55 1014.37 1014.66 1014.85 1015.27 1015.40 1015.28 1015.37 1015.43 1015.46 1015.40 1015.45 1015.47 1015.49 1015.50 1015.72 1015.99 1016.20 1016.37 1016.44 1016.35 1016.26 1016.21 1016.08 1016.04 1015.92 1015.83 1015.85
1006.48 1007.57 1008.59 1009.46 1010.19 1010.67 1010.70 1010.80 1011.04 1011.35 1011.66 1012.13 1012.22 1012.58 1012.99 1013.46 1014.35 1014.57 1014.87 1015.43 1015.63 1015.66 1015.67 1015.80 1015.75 1015.77 1015.96 1016.31 1016.03 1016.04 1016.14 1016.39 1016.66 1016.93 1017.13 1017.19 1017.19 1017.14 1016.98 1016.64 1016.80 1016.55 1016.57
1006.64 1007.86 1009.02 1009.93 1010.18 1010.31 1010.55 1010.88 1011.16 1011.50 1011.67 1012.18 1012.37 1012.38 1013.11 1013.44 1014.27 1014.54 1015.16 1015.62 1015.97 1016.12 1016.15 1016.09 1016.24 1016.37 1016.83 1017.28 1016.94 1016.61 1016.63 1016.70 1016.66 1016.75 1016.99 1017.20 1017.32 1017.51 1017.44 1017.41 1017.44 1017.38 1017.23
1006.82 1008.18 1009.20 1009.93 1010.25 1010.52 1010.83 1011.22 1011.56 1012.24 1012.53 1012.88 1012.55 1012.56 1012.97 1013.63 1014.17 1014.47 1014.94 1015.81 1016.30 1016.43 1016.43 1016.68 1016.85 1017.15 1017.72 1018.00 1017.77 1017.33 1017.07 1017.08 1017.18 1017.25 1017.17 1017.18 1017.61 1017.58 1017.69 1017.67 1017.67 1017.89 1017.93
1006.96 1008.58 1009.57 1010.17 1010.40 1010.91 1011.53 1012.15 1012.65 1012.82 1012.92 1013.38 1013.57 1013.56 1013.74 1013.83 1014.01 1014.52 1015.06 1016.00 1016.52 1016.77 1016.83 1017.10 1017.41 1017.82 1018.43 1018.59 1018.41 1018.00 1017.48 1017.44 1017.49 1017.61 1017.75 1017.83 1018.10 1018.42 1018.05 1018.21 1018.47 1018.77 1018.89
1007.27 1008.82 1009.88 1010.81 1011.65 1011.98 1012.49 1012.62 1012.91 1013.12 1013.34 1013.88 1014.56 1014.71 1014.62 1014.40 1014.50 1014.80 1015.46 1016.06 1016.66 1017.03 1017.17 1017.42 1017.80 1018.06 1018.77 1019.05 1018.96 1018.47 1017.99 1018.17 1018.30 1018.70 1018.93 1018.68 1018.95 1019.15 1018.82 1018.68 1018.86 1019.07 1019.45
1008.93 1009.96 1011.16 1012.14 1012.96 1013.47 1013.37 1013.26 1013.62 1013.87 1014.59 1015.21 1015.51 1015.63 1015.75 1015.12 1015.06 1015.23 1015.70 1016.23 1016.82 1017.18 1017.37 1017.74 1018.34 1018.77 1018.93 1019.42 1019.30 1018.99 1018.19 1018.32 1018.65 1019.09 1019.62 1020.00 1020.07 1019.82 1019.37 1018.96 1019.06 1019.12 1019.13
1010.08 1011.15 1011.94 1012.53 1013.46 1013.98 1013.99 1014.08 1014.65 1015.52 1015.94 1016.15 1016.27 1016.54 1016.55 1016.26 1015.99 1016.03 1016.35 1016.63 1016.85 1017.43 1017.80 1018.40 1019.09 1019.71 1020.02 1019.92 1019.86 1019.40 1018.60 1018.53 1018.38 1019.01 1020.04 1020.65 1020.64 1020.45 1020.09 1019.73 1019.61 1019.83 1019.85
1011.38 1011.78 1012.53 1013.50 1014.11 1014.38 1014.51 1014.93 1015.93 1016.42 1016.67 1016.85 1016.92 1017.23 1017.42 1017.43 1017.42 1017.32 1017.48 1017.62 1017.54 1017.98 1018.56 1019.04 1019.23 1020.43 1021.04 1020.97 1020.65 1020.37 1020.14 1019.57 1019.70 1020.28 1020.91 1021.66 1021.44 1021.18 1020.88 1020.57 1020.95 1020.65 1020.32
1012.11 1012.37 1013.34 1014.44 1014.98 1015.23 1015.37 1015.85 1016.65 1016.88 1017.09 1017.29 1017.52 1017.96 1018.27 1018.53 1018.72 1018.71 1018.74 1018.95 1019.27 1019.25 1019.77 1020.23 1020.79 1021.24 1021.73 1021.78 1021.49 1021.34 1021.18 1020.88 1020.68 1021.06 1021.76 1021.74 1021.88 1021.25 1021.20 1021.05 1021.02 1020.61 1019.78
1012.70 1013.25 1013.77 1014.67 1015.34 1015.85 1016.09 1016.40 1016.85 1017.06 1017.26 1017.64 1018.15 1018.69 1019.01 1019.52 1019.71 1019.79 1019.83 1020.11 1020.24 1020.49 1020.72 1021.01 1021.32 1021.64 1021.70 1022.09 1022.16 1022.03 1021.82 1021.65 1021.70 1021.98 1022.06 1021.85 1021.64 1021.22 1021.01 1021.01 1020.56 1020.11 1020.02
1013.73 1014.06 1014.65 1015.31 1016.01 1016.24 1016.40 1016.71 1017.07 1017.22 1017.43 1017.74 1018.19 1018.76 1019.47 1019.98 1020.51 1020.90 1021.07 1021.19 1021.57 1021.36 1021.37 1021.48 1021.65 1021.69 1022.11 1022.53 1022.59 1022.47 1022.12 1021.84 1021.92 1021.89 1021.81 1021.57 1020.38 1020.07 1020.15 1020.30 1020.45 1020.37 1020.30
1014.59 1014.89 1015.27 1015.84 1016.30 1016.48 1016.54 1017.02 1017.23 1017.31 1017.29 1017.51 1017.91 1018.57 1019.10 1019.66 1020.19 1020.82 1021.52 1022.25 1022.23 1022.15 1022.20 1022.11 1022.15 1022.34 1022.53 1022.67 1022.73 1022.59 1022.36 1022.30 1022.47 1021.99 1020.99 1020.31 1020.05 1019.82 1019.81 1019.95 1020.22 1020.51 1020.79
Wind_Speed
13 11 10 10 8 7 9 8 7 2 2 1 1 4 3 5 6 9 4 6 8 11 8 8 7 8 9 12 6 7 8 9 7 3 7 10 10 9 8 7 10 9 12
10 9 8 7 9 9 10 8 6 3 2 2 1 3 4 3 4 5 4 6 8 9 9 10 9 10 9 10 10 7 5 7 5 8 10 10 11 11 11 8 7 10 8
13 11 10 8 9 11 11 9 8 8 2 3 2 4 4 3 6 6 5 1 6 7 6 9 8 9 8 8 11 8 10 7 7 11 8 6 7 5 4 8 8 8 6
12 13 11 11 10 10 9 7 13 8 7 5 4 6 3 7 5 4 4 6 5 3 7 7 9 10 6 10 9 9 10 8 7 4 9 9 8 3 3 3 6 5 5
12 13 12 12 10 8 7 8 11 10 7 6 9 1 7 2 2 5 5 6 7 5 5 5 7 9 7 8 10 10 10 8 6 6 5 8 9 7 4 4 2 2 6
12 12 13 12 10 9 9 10 13 9 6 6 4 3 2 1 4 4 5 7 7 7 7 8 6 5 7 8 7 9 10 8 8 4 6 5 6 7 7 4 3 4 4
14 14 14 12 10 11 10 10 12 10 9 8 5 5 3 1 0 5 7 8 9 8 8 8 6 4 6 7 7 6 8 9 8 7 7 6 10 3 3 5 6 4 3
13 15 14 13 12 12 12 13 12 12 9 7 6 4 2 2 3 6 5 5 7 6 9 7 7 5 3 5 5 5 6 7 7 10 9 7 8 5 5 5 4 4 7
12 14 15 14 13 12 11 12 12 10 10 8 5 4 2 4 5 4 7 7 7 8 10 8 7 7 4 4 5 5 6 4 7 8 7 7 6 8 7 2 5 5 6
13 13 14 14 13 12 10 9 11 11 9 8 6 5 3 4 4 4 6 6 6 8 7 10 9 9 7 4 3 3 3 4 2 3 5 6 5 6 4 7 6 5 6
12 13 14 13 13 13 14 12 11 10 9 8 6 4 4 3 4 4 8 7 7 6 7 7 8 8 9 9 8 8 7 7 5 4 3 2 4 4 4 3 3 3 4
13 12 13 13 13 12 12 11 10 10 9 7 6 4 4 4 4 4 8 7 7 6 6 6 7 8 9 10 10 9 9 9 9 9 3 4 3 4 4 2 3 2 2
12 12 12 12 10 8 7 10 9 10 9 8 7 5 4 6 6 5 6 6 6 7 7 8 7 8 9 9 10 11 10 11 11 10 9 9 7 7 6 6 4 2 3
13 13 13 10 11 9 3 5 6 9 8 7 5 6 4 5 6 4 5 7 5 8 8 7 6 7 9 9 9 10 10 10 11 10 10 10 9 8 7 6 6 6 6
15 14 13 11 11 10 10 7 7 7 6 5 7 7 5 4 7 4 5 6 6 7 8 7 6 7 9 9 8 9 10 10 10 10 10 11 13 16 12 5 6 6 5
15 15 14 12 11 11 10 8 7 6 3 3 6 4 4 5 8 4 4 8 5 5 6 7 7 8 8 12 12 7 8 8 8 9 9 8 11 14 14 15 15 10 4
14 14 12 11 11 10 7 6 4 4 1 5 8 5 4 5 8 5 6 8 5 5 5 6 6 8 9 11 11 8 6 7 8 8 7 9 7 7 10 11 14 14 12
15 13 11 9 9 9 4 6 4 5 5 3 6 6 3 4 8 6 6 8 5 4 4 5 5 7 6 10 13 17 8 8 9 9 9 9 9 11 9 11 12 13 14
12 12 10 8 6 6 5 5 5 2 0 3 1 4 7 5 6 6 8 8 6 4 4 5 5 6 7 11 13 13 7 8 10 10 13 8 9 13 14 9 10 11 11
13 12 11 9 6 4 3 4 5 4 6 6 6 7 7 4 3 5 6 7 6 6 4 7 7 8 7 12 13 12 2 5 7 8 9 16 10 10 13 5 5 6 6
13 11 11 9 7 5 4 7 6 7 6 5 6 7 8 9 6 5 4 3 7 7 7 7 6 8 8 7 11 14 4 2 4 6 5 6 8 10 11 10 5 6 4
12 10 9 8 6 5 6 8 7 5 6 6 8 9 9 7 7 8 6 7 3 9 8 5 6 6 8 11 10 12 13 11 7 5 6 5 5 9 9 5 6 7 8
8 8 9 8 7 6 6 8 6 6 6 8 10 10 10 9 7 7 7 6 7 6 6 5 4 4 3 4 9 12 11 12 5 6 8 6 2 8 7 3 6 7 7
8 7 8 7 7 6 7 7 6 6 8 9 9 9 9 9 8 6 5 4 4 4 4 4 5 3 4 4 3 3 6 8 7 5 3 3 3 6 5 5 4 5 6
6 6 6 6 6 7 7 7 6 6 7 8 9 9 8 9 8 7 5 5 4 2 3 3 3 4 4 3 3 1 4 4 4 4 2 6 5 2 2 2 1 2 2
6 6 7 7 7 6 8 7 6 6 7 7 7 6 6 6 6 6 7 13 8 10 9 9 4 3 6 6 5 5 5 3 5 5 9 2 2 1 1 1 2 2 2
Wind_Direction
175 163 182 166 132 173 182 191 176 98 211 150 147 247 261 195 243 267 203 263 274 272 248 238 230 235 246 254 234 229 227 257 268 321 267 257 229 210 212 220 238 211 226
150 155 146 155 143 172 177 164 128 165 133 215 203 249 211 250 235 276 286 262 266 265 257 259 260 253 239 245 262 250 235 244 240 235 241 250 238 210 191 205 219 223 231
167 163 158 150 175 173 184 161 171 181 183 15 255 230 269 262 246 206 258 350 300 285 285 283 263 254 243 239 232 235 219 227 230 232 247 251 249 278 113 188 228 223 196
172 160 162 152 182 167 184 167 173 184 189 182 259 259 249 262 24 269 26 303 282 281 280 270 266 265 244 243 233 228 222 210 218 213 250 266 313 305 281 339 219 229 215
165 147 156 164 158 139 158 157 158 169 157 182 263 223 248 77 323 335 336 271 242 238 264 306 269 264 251 246 233 226 223 216 242 220 255 251 227 208 262 271 259 234 236
146 130 137 160 149 142 150 152 166 184 205 221 207 225 83 37 347 360 308 4 322 29 352 323 311 286 259 252 249 232 219 224 223 224 244 256 240 212 223 234 287 234 279
135 137 152 154 157 157 146 152 160 177 191 181 169 186 164 109 261 324 7 327 354 356 332 329 318 325 282 255 250 232 208 209 213 221 231 227 256 197 186 211 234 243 321
144 150 154 152 164 159 154 149 159 147 174 161 161 163 220 46 333 47 348 344 353 348 342 320 331 324 315 245 214 220 236 215 217 224 233 230 248 237 178 204 229 262 245
149 147 145 160 161 164 166 167 171 167 164 146 157 147 95 29 27 8 332 25 8 347 360 346 348 349 336 267 220 221 208 205 216 220 226 229 240 262 277 236 184 221 250
152 150 151 155 159 158 170 151 166 169 153 154 154 137 128 59 32 20 48 16 13 12 3 359 355 9 357 352 285 229 247 218 204 201 206 218 238 245 238 264 249 192 240
158 152 152 158 162 161 158 165 159 150 157 154 132 152 96 87 53 24 61 18 30 20 25 22 13 20 27 35 60 59 46 64 65 57 358 291 239 252 268 254 270 258 234
150 157 156 161 155 179 155 156 158 157 162 142 134 147 130 77 69 21 73 62 35 37 47 30 29 38 44 42 58 60 53 56 50 38 23 16 313 317 315 319 295 280 274
153 155 147 156 172 141 147 149 166 148 157 156 145 153 139 108 92 49 41 71 51 58 51 54 37 41 54 64 68 74 65 57 54 51 47 32 44 46 40 45 30 25 54
164 152 150 158 132 137 152 156 163 151 151 159 161 150 178 113 101 95 71 73 42 60 56 37 43 52 61 61 60 74 76 72 66 60 54 48 41 40 51 51 48 71 76
171 158 156 147 149 166 175 172 167 152 152 180 197 167 174 134 108 92 76 71 47 50 61 46 25 43 55 31 58 71 78 84 83 76 66 56 58 55 51 51 35 54 61
176 159 154 170 178 172 174 168 154 162 190 220 239 192 144 138 135 139 127 95 63 71 59 62 51 48 56 359 7 38 76 75 76 84 93 99 91 73 69 73 65 50 60
178 160 162 177 166 163 176 163 137 70 139 268 252 243 154 177 160 173 151 117 95 95 78 74 56 66 64 6 357 4 71 82 76 77 86 92 95 100 99 106 90 68 53
173 159 162 167 163 113 100 91 172 199 214 261 325 331 33 303 169 174 122 125 128 118 105 86 81 78 67 3 348 343 70 78 81 80 73 73 76 37 65 83 77 67 52
167 151 133 127 118 123 131 154 180 186 218 76 338 326 327 328 169 159 139 142 139 146 127 103 96 90 75 13 358 338 91 72 64 61 34 70 76 9 3 89 91 93 95
109 119 111 118 106 95 148 150 75 55 51 22 12 5 349 317 176 130 158 140 140 152 140 109 76 53 90 30 0 351 143 112 106 100 76 46 33 16 6 72 92 90 81
121 123 148 130 123 118 100 89 79 58 34 33 44 39 29 25 33 77 76 134 158 134 124 116 100 71 33 46 9 4 42 139 99 81 79 61 32 32 27 33 63 67 104
140 137 121 116 102 95 103 95 81 70 62 57 57 51 46 40 35 57 46 36 69 127 129 146 105 61 36 22 27 33 29 25 76 81 76 75 60 58 20 67 9 334 301
130 122 114 107 88 67 83 99 84 78 74 67 63 64 61 55 41 55 57 56 41 91 87 76 101 92 51 47 43 40 37 32 103 87 73 114 153 139 104 16 294 284 259
132 116 127 116 102 98 94 100 98 91 85 81 75 69 66 60 45 45 49 62 73 88 91 106 129 122 110 94 86 80 86 59 75 123 182 214 168 64 76 236 252 20 10
102 101 120 110 118 115 100 97 96 97 99 97 92 86 82 81 73 58 37 66 42 42 117 125 118 136 122 96 65 163 177 156 158 158 203 226 211 159 128 76 35 144 190
135 128 122 128 125 116 105 107 113 118 108 104 98 92 101 101 104 102 88 53 53 59 62 65 91 63 86 118 87 54 45 15 20 242 241 221 278 307 63 178 170 151 252